Location: La Fredeussais
(48.1780°N, 1.3980°W)
Time: 08:48:55
(UTC+00:00)

Cosmos 1777 Rocket - Pass Details

Date: 09 May 2021
Orbit: 758 x 776 km, 74.0° (Epoch: 12 June)

Event Time Altitude Azimuth Distance (km) Brightness Sun altitude
Exits shadow 22:00:45 - 213° (SSW) 2,402 6.3 -18.9°
Reaches altitude 10° 22:01:04 10° 213° (SSW) 2,284 6.2 -18.9°
Maximum altitude 22:06:12 65° 295° (WNW) 838 4.3 -19.3°
Drops below altitude 10° 22:11:23 10° 18° (NNE) 2,300 7.1 -19.7°
Sets 22:13:48 0° 21° (NNE) 3,231 7.8 -19.9°
